User: anonymous   Login
Location: La Sioule Rivi�re
(46.3664°N, 3.3197°E)
Time: 16:28:07
(UTC+00:00)
Language:

ERS-2 - Orbit

View from above orbital plane
View from above orbital plane
View from above satellite
View from above satellite

Ground track
Ground track

The orbit data is extracted from the following two-line orbital elements,

1 23560U 95021A   21017.10285894  .00000756  00000-0  35358-4 0  9997
2 23560  98.5532 206.1484 0003894 148.3233 211.8236 15.23603315374672
Epoch (UTC): 17 January 2021 02:28:07
Eccentricity: 0.0003894
inclination: 98.5532°
perigee height: 492 km
apogee height: 497 km
right ascension of ascending node: 206.1484°
argument of perigee: 148.3233°
revolutions per day: 15.23603315
mean anomaly at epoch: 211.8236°
orbit number at epoch: 37467

The dashed part of the orbit path shows where the satellite is in the earth's shadow,  

DLR